COSMOS 1275 DEB, 42143

Orbit data source: Space-Track

COSMOS 1275 DEB, 42143 is space debris in LEO originally from a launch on Thu, 04 Jun 1981 UTC launched from the Plesetsk Missile And Space Complex (PKMTR). Debris objects in space refer to the collection of defunct objects orbiting the Earth. Examples of debris include non-operational satellites, rocket bodies, and fragments generated from explosions, collisions, or faulty payload assembly.

Loading next visibility...
Identifier
42143, 1981-053RF
Orbit
LEO
Country
Flag of CISCIS
Related business
Manufacturer
Unknown
Mission
Spacecraft
Bus & Motor
Unknown
Mass
Unknown
Launch date (UTC)
1981-06-04 (45 years ago)
Launch vehicle
Unknown
Launch site
Plesetsk Missile And Space Complex (PKMTR)
Object type
Payload
Rocket body
Debris
Shape & HBR
Unknown shape, 0.1 m
Radar Cross Section
Small (<0.1 m²)

Expand to show TLE details & history
Last TLE update: 2 days ago

TLE from 2 days ago
0 COSMOS 1275 DEB
1 42143U 81053RF  26142.92143417  .00000775  00000-0  69068-3 0  9998
2 42143  83.0158 207.7213 0099630  89.9727 271.2849 13.81151301627408
Epoch: 2026-05-22T22:06Z
TLE epoch observation values (Epoch: 2026-05-22T22:06:51.912Z)
Latitude
-0.00004°
Longitude
-4.54035°
Altitude
961.805 km
Speed
7.371 km/s
True Right ascension
13h 50m 53s
True Declination
0° 00' 00"
Sunlit
Object was in full shadow at epoch
Visualization orbit readout
Latitude
Unknown
Longitude
Unknown
Altitude
Unknown
Speed
Unknown
Apparent Right ascension
Unknown
Apparent Declination
Unknown
Sunlit
N/A
Visualization observer readout
Local Sidereal Time
17:47:36
Azimuth
Unknown
Elevation
Unknown
Doppler factor
Unknown
Orbital elements
Apogee altitude
1,030.023 km
Perigee altitude
883.864 km
Semi-major axis
7,335.08 km
Eccentricity
0.00996
Inclination
83.0158°
RAAN
207.7213°
Arg. of periapsis
89.9727°
True anomaly
270.14327°
Mean anomaly
271.2849°
Eccentric anomaly
270.71411°
Mean motion
3.4549 °/min
Orbital period
104.2 mins
BSTAR
0.00069068
Loading maneuver chart data...
Computing Atmospheric mass density...
Loading historical data...
Loading historical data...
Loading historical data...
Loading historical data...
Loading historical data...
Loading historical data...
Loading historical data...

Documentation

Showing up to 5 results
|